Location: Brede
(50.9167°N, 0.6000°E)
Time: 20:26:58
(UTC+00:00)

Vanguard 1 Rocket - Pass Details

Date: 03 December 2020
Orbit: 655 x 4221 km, 34.3° (Epoch: 17 January)

Event Time Altitude Azimuth Distance (km) Brightness Sun altitude
Exits shadow 01:02:32 34° 124° (SE) 4,993 10.9 -57.7°
Drops below altitude 10° 01:12:37 10° 100° (E) 5,975 11.7 -56.8°
Sets 01:16:40 0° 94° (E) 6,589 12.0 -56.4°
